Regional Weather Roundup
Issued by NWS Bismarck, ND

Home | Current Version | Previous Version | Text Only | Print | Product List | Glossary On
Versions: 1 2 3 4 5 6 7 8 9 10 11 12 13 14 15 16 17 18 19 20 21 22 23 24 25 26 27 28 29 30 31 32 33 34 35 36 37 38 39 40 41 42 43 44 45 46 47 48 49 50
000
ASUS43 KBIS 261910
RWRBIS

NWR BROADCAST TEXT
NATIONAL WEATHER SERVICE BISMARCK ND
100 PM CST FRI DEC 26 2014

NOTE: "FAIR" INDICATES FEW OR NO CLOUDS BELOW 12,000 FEET WITH NO
SIGNIFICANT WEATHER AND/OR OBSTRUCTIONS TO VISIBILITY.


CITY           SKY/WX    TMP DP  RH WIND       PRES   REMARKS
WILLISTON      CLOUDY    17  12  80 CALM      30.16F
MINOT          PTSUNNY   12   4  70 W8        30.17F WCI   0
MINOT AFB      CLOUDY     9   6  89 N5        30.18F WCI   0
BISMARCK       CLOUDY    18  12  77 NW8       30.17F WCI   8
DICKINSON      FAIR      22  13  68 NW6       30.08F WCI  14
GARRISON         N/A     13   7  77 NW7       30.16F WCI   3
HETTINGER ARPT PTSUNNY   22  12  65 N10       30.11F WCI  11
JAMESTOWN      CLOUDY    11   5  77 NW13      30.16F WCI  -4
BEACH          CLOUDY    25  16  68 W7        30.10F WCI  17
CARRINGTON     FLURRIES   7   5  92 MISG      30.19F
CROSBY         CLOUDY     7   5  92 CALM      30.18F
HARVEY         FLURRIES   9   5  85 NW10      30.18F WCI  -6
HAZEN          LGT SNOW  16   9  73 NW7       30.18F WCI   6
LINTON         FLURRIES  16  12  86 NW12      30.16F WCI   3
MANDAN         FLURRIES  18  12  79 N8        30.15F WCI   7
OAKES            N/A     19  19 100 NW15      30.15S WCI   5
RUGBY          FAIR       5   1  85 W15       30.18F WCI -13
STANLEY        FLURRIES  12  10  92 W7        30.14S WCI   2
TIOGA          FLURRIES  14  14 100 NW5       30.16F WCI   6
WATFORD CITY   CLOUDY    16  12  86 CALM      30.13F
$$

CITY           SKY/WX    TMP DP  RH WIND       PRES   REMARKS
GRAND FORKS    CLOUDY    21  13  71 NW13      30.18F WCI   9
GRAND FORKS AF CLOUDY    18  13  82 NW12      30.19S WCI   5
DEVILS LAKE    FAIR       7  -2  66 NW13      30.17F WCI  -9
FARGO          CLOUDY    25  18  74 NW12      30.15F WCI  14
CANDO          FAIR       7   1  78 NW14      30.18F WCI -10
CAVALIER       CLOUDY     9   3  78 NW12      30.20F WCI  -6
GWINNER        CLOUDY    25  23  93 N14       30.15S WCI  13
LANGDON        FAIR       5  -2  72 NW15      30.15S WCI -13
ROLLA          FAIR       5   0  78 CALM      30.15S
WALHALLA         N/A      9   3  78 W8        30.21S WCI  -4
$$

CITY           SKY/WX    TMP DP  RH WIND       PRES   REMARKS
ABERDEEN       CLOUDY    24  18  77 N17       30.15F WCI  11
MOBRIDGE       PTSUNNY   21  11  65 N13       30.13F WCI   9
BUFFALO          N/A     21  13  71 NW10      30.02F WCI  10
RAPID CITY     MIX PCPN  19  14  81 N9        30.09F WCI   8
GLASGOW        FAIR      25  17  72 SE10      30.08F WCI  15
SIDNEY         CLOUDY    18  12  79 CALM      30.17F
WOLF POINT     CLOUDY    17  12  80 E9        30.14F WCI   6
GLENDIVE       CLOUDY    25  18  74 CALM      30.11F
MILES CITY     FAIR      26  19  74 S8        30.09F WCI  18
BAKER          CLOUDY    23  14  68 NW6       30.09F WCI  16
$$

CITY           SKY/WX    TMP DP  RH WIND       PRES   REMARKS
BILLINGS       PTSUNNY   18  10  71 SW15      30.04F WCI   4
GREAT FALLS    LGT SNOW  19  15  84 W6        30.13S FOG     WCI  11
REGINA         PTSUNNY    3   0  85 S8        30.16F WCI -10
ESTEVAN        MOSUNNY    3  -4  72 NW5       30.17F WCI  -6
$$



USA.gov is the U.S. government's official web portal to all federal, state and local government web resources and services.